Flag for U.S.A. Weather past 2 weeks in Binghamton, New York, U.S.A.

Now
69 °F

Sunny.


Feels Like: 69 °F
Forecast: 57 / 72 °F
Wind: 7 mph from Northwest

Location: Binghamton Regional Airport

Current Time: Jun 29, 2015 at 7:47:11 PM

Latest Report: Jun 29, 2015 at 6:53 PM


Visibility: 10 mi

Pressure: 29.91 "Hg

Humidity: 59%

Dew point: 54 °F

Location of BinghamtonLocation

Historic Weather in Binghamton — Graph

°F

Binghamton temperature yesterday

Maximum temperature yesterday: 62 °F (at 2:53 PM)
Minimum temperature yesterday: 52 °F (at 12:53 AM)
Average temperature yesterday: 57 °F

Past Weeks' High & Low Weather Summary

 TemperatureHumidityPressure
High80 °F (Jun 23, 2:53 PM)100% (Jun 14, 7:53 PM)30.16 "Hg (Jun 14, 7:53 PM)
Low52 °F (Jun 20, 4:53 AM)42% (Jun 24, 6:53 PM)29.67 "Hg (Jun 28, 2:53 PM)
Average65 °F81%29.95 "Hg
* Reported Jun 14 6:00 PM — Jun 29 6:53 PM, Binghamton, Weather by CustomWeather, © 2015

Note: Actual official high and low records may vary slightly from our data, if they occured in-between our weather recording intervals... More about our weather records

Advertising

Binghamton weather history for previous 24 hours

 ConditionsComfort  
Time TempWeatherWind HumidityBarometerVisibility
6:53 PM
Mon, Jun 29
69 °FSunny.7 mph59%29.91 "Hg10 mi
5:53 PM70 °FSunny.9 mph59%29.90 "Hg10 mi
4:53 PM69 °FSunny.3 mph63%29.90 "Hg10 mi
3:53 PM66 °FCloudy.8 mph68%29.91 "Hg10 mi
2:53 PM67 °FOvercast.10 mph68%29.91 "Hg10 mi
1:53 PM62 °FMostly cloudy.7 mph75%29.92 "Hg10 mi
12:53 PM63 °FCloudy.10 mph75%29.91 "Hg10 mi
11:53 AM63 °FBroken clouds.7 mph81%29.90 "Hg10 mi
10:53 AM62 °FMostly cloudy.14 mph83%29.90 "Hg10 mi
10:01 AM58 °FMostly cloudy.12 mph93%29.91 "Hg10 mi
8:53 AM57 °FFog.8 mph96%29.89 "Hg1 mi
7:53 AM57 °FFog.8 mph93%29.87 "Hg1 mi
6:53 AM55 °FFog.7 mph96%29.85 "Hg1 mi
5:53 AM55 °FOvercast.5 mph96%29.83 "Hg10 mi
4:53 AM55 °FLow clouds.9 mph96%29.82 "Hg10 mi
3:53 AM55 °FLow clouds.8 mph93%29.80 "Hg10 mi
2:53 AM54 °FMostly cloudy.10 mph97%29.79 "Hg10 mi
1:53 AM54 °FLow clouds.13 mph97%29.79 "Hg10 mi
12:53 AM54 °FMostly cloudy.13 mph100%29.78 "Hg8 mi
11:53 PM
Sun, Jun 28
56 °FOvercast.17 mph93%29.76 "Hg10 mi
10:53 PM57 °FLow clouds.12 mph93%29.76 "Hg10 mi
9:53 PM58 °FMostly cloudy.13 mph97%29.74 "Hg10 mi
7:53 PM61 °FHeavy rain. Fog.7 mph97%29.69 "Hg1 mi
7:03 PM62 °FMostly cloudy.5 mph96%29.69 "Hg2 mi
Weather by CustomWeather, © 2015

See weather overviewHow to use our weather pages